Location: UBC Liquid-Mirror Observatory
(49.2876°N, 122.5728°W)
Time: 22:48:48
(UTC-07:00)

KITSAT 1 - Visible Passes

Search period start: 18 September 2014 00:00
Search period end: 28 September 2014 00:00
Orbit: 1312 x 1319 km, 66.1° (Epoch: 17 September)

Date Brightness Start Highest point End Pass type
(mag) Time Alt. Az. Time Alt. Az. Time Alt. Az.
18 Sep 12.1 00:45:39 10° WNW 00:52:00 24° N 00:58:20 10° NE visible
18 Sep 11.8 02:43:07 10° NW 02:50:12 32° NNE 02:57:14 10° E visible
18 Sep 10.4 04:38:47 10° NW 04:46:56 77° NE 04:55:00 10° SE visible
18 Sep 10.3 21:05:58 10° SW 21:14:05 82° NW 21:22:14 10° NE visible
18 Sep 11.7 23:03:32 10° W 23:10:42 33° NNW 23:17:52 10° NE visible
19 Sep 12.1 01:02:31 10° NW 01:08:51 24° N 01:15:09 10° NE visible
19 Sep 11.5 02:59:22 10° NW 03:06:49 38° NNE 03:14:12 10° E visible
19 Sep 10.1 04:54:56 10° NW 05:03:03 82° SW 05:11:07 10° SSE visible
19 Sep 10.7 21:22:17 10° SW 21:30:18 64° NW 21:38:22 10° NE visible
19 Sep 11.9 23:20:34 10° WNW 23:27:23 29° NNW 23:34:12 10° NE visible
20 Sep 12.1 01:19:14 10° NW 01:25:41 25° N 01:32:07 10° ENE visible
20 Sep 11.1 03:15:34 10° NW 03:23:19 46° NE 03:31:01 10° ESE visible
20 Sep 10.2 05:11:08 10° NW 05:19:04 61° WSW 05:26:57 10° SSE visible
20 Sep 10.4 19:43:15 10° SSW 19:51:03 55° ESE 19:58:53 10° NE visible
20 Sep 11.1 21:38:50 10° WSW 21:46:39 50° NW 21:54:30 10° NE visible
20 Sep 12.0 23:37:38 10° WNW 23:44:09 26° NNW 23:50:41 10° NE visible
21 Sep 11.9 01:35:45 10° NW 01:42:29 27° NNE 01:49:10 10° ENE visible
21 Sep 10.7 03:31:42 10° NW 03:39:42 59° NE 03:47:38 10° ESE visible
21 Sep 10.5 05:27:26 10° NW 05:34:57 44° WSW 05:42:26 10° S visible
21 Sep 10.2 19:58:59 10° SSW 20:07:02 75° ESE 20:15:07 10° NE visible
21 Sep 11.4 21:55:36 10° WSW 22:03:07 40° NNW 22:10:40 10° NE visible
21 Sep 12.1 23:54:38 10° WNW 00:00:59 24° N 00:07:20 10° NE visible
22 Sep 11.7 01:52:08 10° NW 01:59:12 31° NNE 02:06:13 10° E visible
22 Sep 10.3 03:47:50 10° NW 03:55:58 76° NE 04:04:02 10° SE visible
22 Sep 10.8 05:43:54 10° NW 05:50:43 31° WSW 05:57:32 10° SSW visible
22 Sep 10.3 20:15:00 10° SW 20:23:07 84° NW 20:31:16 10° NE visible
22 Sep 11.7 22:12:31 10° W 22:19:42 33° NNW 22:26:54 10° NE visible
23 Sep 12.1 00:11:31 10° NW 00:17:50 24° N 00:24:08 10° NE visible
23 Sep 11.4 02:08:24 10° NW 02:15:49 37° NNE 02:23:11 10° E visible
23 Sep 10.1 04:03:59 10° NW 04:12:06 84° SW 04:20:10 10° SSE visible
23 Sep 11.2 06:00:39 10° WNW 06:06:22 22° WSW 06:12:05 10° SSW visible
23 Sep 10.7 20:31:18 10° SW 20:39:20 65° NW 20:47:24 10° NE visible
23 Sep 11.9 22:29:33 10° WNW 22:36:23 29° NNW 22:43:14 10° NE visible
24 Sep 12.0 00:28:14 10° NW 00:34:40 25° N 00:41:06 10° ENE visible
24 Sep 11.1 02:24:36 10° NW 02:32:20 46° NE 02:40:01 10° ESE visible
24 Sep 10.1 04:20:10 10° NW 04:28:07 63° WSW 04:36:01 10° SSE visible
24 Sep 11.5 06:18:06 10° WNW 06:21:54 14° W 06:25:42 10° SW visible
24 Sep 11.1 20:47:50 10° WSW 20:55:40 51° NW 21:03:32 10° NE visible
24 Sep 12.0 22:46:36 10° WNW 22:53:09 26° NNW 22:59:42 10° NE visible
25 Sep 11.9 00:44:46 10° NW 00:51:28 27° NNE 00:58:08 10° ENE visible
25 Sep 10.7 02:40:45 10° NW 02:48:44 58° NE 02:56:39 10° ESE visible
25 Sep 10.4 04:36:28 10° NW 04:44:01 45° WSW 04:51:32 10° S visible
25 Sep 11.4 21:04:35 10° WSW 21:12:08 41° NW 21:19:42 10° NE visible
25 Sep 12.1 23:03:37 10° WNW 23:09:58 24° N 23:16:19 10° NE visible
26 Sep 11.6 01:01:10 10° NW 01:08:12 31° NNE 01:15:11 10° E visible
26 Sep 10.3 02:56:52 10° NW 03:05:00 74° NE 03:13:04 10° SE visible
26 Sep 10.7 04:52:54 10° NW 04:59:48 32° WSW 05:06:40 10° SSW visible
26 Sep 10.4 19:24:03 10° SW 19:32:10 85° NW 19:40:19 10° NE visible
26 Sep 11.7 21:21:30 10° W 21:28:42 34° NNW 21:35:56 10° NE visible
26 Sep 12.0 23:20:30 10° NW 23:26:49 24° N 23:33:07 10° NE visible
27 Sep 11.4 01:17:26 10° NW 01:24:50 37° NNE 01:28:02 27° ENE visible
27 Sep 10.2 03:13:01 10° NW 03:19:48 66° NW 03:19:48 66° NW visible
27 Sep 11.6 05:09:38 10° WNW 05:11:34 16° WNW 05:11:34 16° WNW visible
27 Sep 10.7 19:40:19 10° SW 19:48:22 66° NW 19:56:27 10° NE visible
27 Sep 11.9 21:38:31 10° W 21:45:23 29° NNW 21:52:15 10° NE visible
27 Sep 11.9 23:37:14 10° NW 23:43:40 25° N 23:49:50 11° ENE visible
